Location: Asheville, NC
(35.6000°N, 82.5500°W)
Time: 00:07:18
(UTC-04:00)

Vanguard 1 - Pass Details

Date: 08 March 2018
Orbit: 650 x 3833 km, 34.3° (Epoch: 20 June)

Event Time Altitude Azimuth Distance (km) Brightness Sun altitude
Rises 12:12:25 0° 258° (WSW) 7,956 14.7 49.1°
Reaches altitude 10° 12:17:54 10° 258° (WSW) 6,927 14.5 49.3°
Maximum altitude 12:40:58 85° 174° (S) 3,049 13.6 49.7°
Drops below altitude 10° 12:54:56 10° 88° (E) 4,528 13.5 49.6°
Sets 12:57:42 0° 88° (E) 5,201 13.7 49.5°
